EW6851 Weather Reports


Display with metric or nautical units.
time (UTC)temp
F
wind
direction
speed
MPH
gust
MPH
rain 1hr
in
rain 24hr
in
rain mn
in
humidity
%
barometer
mb
20260506143157 77 230 10.0 18.0 0.00 0.00 0.00 45 1012.3
20260506142657 77 204 10.0 17.0 0.00 0.00 0.00 45 1012.2
20260506142200 77 223 8.0 16.0 0.00 0.00 0.00 47 1012.1
20260506141700 78 238 7.0 15.0 0.00 0.00 0.00 43 1012.0
20260506141206 78 211 3.0 14.0 0.00 0.00 0.00 41 1011.8
20260506140703 78 197 7.0 16.0 0.00 0.00 0.00 42 1011.7
20260506140200 78 191 6.0 15.0 0.00 0.00 0.00 44 1011.6
20260506135700 78 188 7.0 14.0 0.00 0.00 0.00 43 1011.5
20260506135200 78 227 7.0 16.0 0.00 0.00 0.00 39 1011.8
20260506134700 79 252 11.0 17.0 0.00 0.00 0.00 40 1011.9
20260506134158 79 210 12.0 16.0 0.00 0.00 0.00 40 1012.0
20260506133657 80 211 6.0 15.0 0.00 0.00 0.00 39 1012.0
20260506133157 80 254 5.0 17.0 0.00 0.00 0.00 39 1012.0
20260506132706 80 204 6.0 15.0 0.00 0.00 0.00 37 1011.9
20260506132157 80 175 10.0 13.0 0.00 0.00 0.00 36 1011.9
20260506131706 80 160 1.0 12.0 0.00 0.00 0.00 36 1011.9
20260506131157 80 151 3.0 17.0 0.00 0.00 0.00 37 1012.0
20260506130703 80 166 5.0 12.0 0.00 0.00 0.00 37 1012.0
20260506130157 80 139 9.0 15.0 0.00 0.00 0.00 37 1012.1
20260506125701 81 155 3.0 15.0 0.00 0.00 0.00 41 1012.2
20260506125157 81 203 6.0 9.0 0.00 0.00 0.00 41 1012.3
20260506124657 80 211 6.0 16.0 0.00 0.00 0.00 40 1012.3
20260506124157 82 208 9.0 15.0 0.00 0.00 0.00 39 1012.3
20260506123700 82 137 9.0 12.0 0.00 0.00 0.00 41 1012.4
20260506123203 82 217 8.0 11.0 0.00 0.00 0.00 41 1012.4
20260506122657 82 236 4.0 12.0 0.00 0.00 0.00 42 1012.4
20260506122157 81 118 0.0 4.0 0.00 0.00 0.00 44 1012.3
20260506121657 80 26 0.0 8.0 0.00 0.00 0.00 45 1012.3
20260506121157 80 26 4.0 9.0 0.00 0.00 0.00 46 1012.3
20260506120703 80 329 5.0 6.0 0.00 0.00 0.00 47 1012.3
20260506120157 80 314 4.0 10.0 0.00 0.00 0.00 47 1012.4
20260506115657 79 297 4.0 10.0 0.00 0.00 0.00 49 1012.4
20260506115203 79 17 4.0 9.0 0.00 0.00 0.00 48 1012.6
20260506114657 79 69 8.0 8.0 0.00 0.00 0.00 48 1012.7
20260506114203 78 65 7.0 10.0 0.00 0.00 0.00 48 1012.7
20260506113700 78 34 4.0 9.0 0.00 0.00 0.00 48 1012.8
20260506113157 78 16 5.0 9.0 0.00 0.00 0.00 48 1012.8
20260506112703 78 44 5.0 11.0 0.00 0.00 0.00 48 1012.8
20260506112200 78 53 4.0 9.0 0.00 0.00 0.00 48 1012.9
20260506111657 78 18 8.0 10.0 0.00 0.00 0.00 48 1013.1
20260506111200 78 343 6.0 10.0 0.00 0.00 0.00 48 1013.0
20260506110700 77 333 2.0 10.0 0.00 0.00 0.00 49 1013.1
20260506110200 77 0 4.0 9.0 0.00 0.00 0.00 48 1013.1
20260506105657 77 333 5.0 8.0 0.00 0.00 0.00 47 1013.2
20260506105157 77 11 2.0 7.0 0.00 0.00 0.00 47 1013.3
20260506104700 78 5 7.0 9.0 0.00 0.00 0.00 46 1013.3
20260506104157 79 64 4.0 10.0 0.00 0.00 0.00 45 1013.4
20260506103657 79 297 3.0 7.0 0.00 0.00 0.00 45 1013.3
20260506103157 79 14 3.0 7.0 0.00 0.00 0.00 44 1013.3
20260506102700 79 350 0.0 6.0 0.00 0.00 0.00 45 1013.4
20260506102200 78 82 0.0 5.0 0.00 0.00 0.00 45 1013.4
20260506101657 78 355 0.0 7.0 0.00 0.00 0.00 45 1013.5
20260506101157 77 337 5.0 6.0 0.00 0.00 0.00 46 1013.5
20260506100657 77 131 0.0 5.0 0.00 0.00 0.00 47 1013.6
20260506100200 77 44 5.0 5.0 0.00 0.00 0.00 46 1013.7
20260506095657 77 321 1.0 5.0 0.00 0.00 0.00 47 1013.7
20260506095157 76 26 1.0 5.0 0.00 0.00 0.00 48 1013.8
20260506094706 75 9 0.0 5.0 0.00 0.00 0.00 48 1013.8
20260506094200 76 5 1.0 5.0 0.00 0.00 0.00 48 1013.9
20260506093706 75 342 5.0 5.0 0.00 0.00 0.00 48 1014.0
20260506093203 75 5 0.0 4.0 0.00 0.00 0.00 47 1014.0
20260506092700 75 71 1.0 5.0 0.00 0.00 0.00 48 1014.0
20260506092157 75 27 4.0 5.0 0.00 0.00 0.00 48 1014.0
20260506091700 75 20 4.0 7.0 0.00 0.00 0.00 48 1014.1
20260506091200 75 350 2.0 6.0 0.00 0.00 0.00 49 1014.1
20260506090658 74 306 1.0 7.0 0.00 0.00 0.00 50 1014.1
20260506090204 74 326 2.0 7.0 0.00 0.00 0.00 50 1014.0
20260506085657 74 24 3.0 5.0 0.00 0.00 0.00 49 1014.1
20260506085157 74 37 0.0 2.0 0.00 0.00 0.00 51 1014.1
20260506084657 74 37 3.0 3.0 0.00 0.00 0.00 50 1014.1
20260506084203 74 49 0.0 4.0 0.00 0.00 0.00 49 1014.0
20260506083700 74 19 0.0 5.0 0.00 0.00 0.00 50 1013.9
20260506083200 74 51 0.0 5.0 0.00 0.00 0.00 46 1013.7
20260506082657 75 98 5.0 6.0 0.00 0.00 0.00 45 1013.9
20260506082157 76 40 4.0 6.0 0.00 0.00 0.00 44 1014.0
20260506081704 75 47 0.0 2.0 0.00 0.00 0.00 44 1014.1
20260506081201 75 47 0.0 3.0 0.00 0.00 0.00 44 1014.0
20260506080701 75 47 1.0 3.0 0.00 0.00 0.00 45 1014.1
20260506080158 75 27 2.0 4.0 0.00 0.00 0.00 44 1014.1
20260506073158 75 17 0.0 0.0 0.00 0.00 0.00 47 1014.2
20260506072707 74 250 0.0 0.0 0.00 0.00 0.00 47 1014.2
20260506072158 74 242 0.0 0.0 0.00 0.00 0.00 48 1014.3
20260506071658 73 188 0.0 0.0 0.00 0.00 0.00 50 1014.4
20260506071204 72 188 0.0 0.0 0.00 0.00 0.00 50 1014.4
20260506070704 72 187 0.0 4.0 0.00 0.00 0.00 51 1014.4
20260506070201 72 203 0.0 2.0 0.00 0.00 0.00 51 1014.5
20260506062207 70 117 0.0 0.0 0.00 0.00 0.00 60 1014.5
20260506061704 70 169 0.0 0.0 0.00 0.00 0.00 64 1014.4
20260506061207 69 163 0.0 0.0 0.00 0.00 0.00 65 1014.3
20260506060658 68 163 0.0 0.0 0.00 0.00 0.00 65 1014.3
20260506060207 67 163 0.0 0.0 0.00 0.00 0.00 66 1014.3
20260506051204 64 119 0.0 0.0 0.00 0.00 0.00 62 1013.3
20260506050701 64 119 0.0 0.0 0.00 0.00 0.00 61 1013.4
20260506050158 64 119 0.0 0.0 0.00 0.00 0.00 61 1013.3
20260506044702 64 119 0.0 0.0 0.00 0.00 0.00 61 1013.1
20260506044204 64 119 0.0 0.0 0.00 0.00 0.00 61 1013.1
20260506043658 64 119 0.0 0.0 0.00 0.00 0.00 60 1013.1
20260506043201 64 153 0.0 0.0 0.00 0.00 0.00 60 1013.0
20260506042658 64 116 0.0 0.0 0.00 0.00 0.00 59 1013.0
20260506042201 64 129 0.0 1.0 0.00 0.00 0.00 60 1013.0
20260506041701 64 129 0.0 0.0 0.00 0.00 0.00 60 1013.0
20260506041201 64 129 0.0 1.0 0.00 0.00 0.00 62 1013.0
20260506040704 64 129 0.0 0.0 0.00 0.00 0.00 62 1012.9
20260506040201 64 129 0.0 1.0 0.00 0.00 0.00 63 1012.8
20260506035658 64 129 0.0 3.0 0.00 0.00 0.00 64 1012.7
20260506035158 64 152 2.0 2.0 0.00 0.00 0.00 69 1012.6
20260506034658 65 64 0.0 2.0 0.00 0.00 0.00 70 1012.5
20260506034204 65 212 0.0 0.0 0.00 0.00 0.00 70 1012.7
20260506033659 65 212 0.0 0.0 0.00 0.00 0.00 78 1012.8
20260506033158 66 212 0.0 0.0 0.00 0.00 0.00 79 1012.8
20260506032701 66 212 0.0 2.0 0.00 0.00 0.00 79 1012.8
20260506032158 66 224 0.0 4.0 0.00 0.00 0.00 77 1012.9
20260506031701 67 231 2.0 5.0 0.00 0.00 0.00 76 1012.9
20260506031159 68 222 2.0 6.0 0.00 0.00 0.00 71 1012.8
20260506030658 68 286 2.0 2.0 0.00 0.00 0.00 64 1012.8
20260506030158 68 248 0.0 5.0 0.00 0.00 0.00 51 1012.7
20260506025658 68 205 1.0 8.0 0.00 0.00 0.00 46 1012.7
20260506025158 68 196 4.0 11.0 0.00 0.00 0.00 48 1012.7
20260506024704 68 225 10.0 10.0 0.00 0.00 0.00 57 1012.6
20260506024201 68 248 0.0 2.0 0.00 0.00 0.00 58 1012.6
20260506023704 68 281 2.0 3.0 0.00 0.00 0.00 54 1012.6
20260506023158 68 241 0.0 5.0 0.00 0.00 0.00 45 1012.6
20260506022701 68 271 1.0 5.0 0.00 0.00 0.00 45 1012.6
20260506022201 68 196 3.0 7.0 0.00 0.00 0.00 45 1012.6
20260506021707 68 277 3.0 5.0 0.00 0.00 0.00 46 1012.6
20260506021158 67 234 4.0 5.0 0.00 0.00 0.00 47 1012.6
20260506020704 68 204 2.0 3.0 0.00 0.00 0.00 48 1012.5
20260506020159 68 102 0.0 4.0 0.00 0.00 0.00 49 1012.6
20260506015656 68 191 0.0 0.0 0.00 0.00 0.00 51 1012.6
20260506015202 68 191 0.0 7.0 0.00 0.00 0.00 51 1012.5
20260506014705 68 229 0.0 4.0 0.00 0.00 0.00 57 1012.5
20260506014156 69 114 1.0 7.0 0.00 0.00 0.00 49 1012.8
20260506013702 69 234 2.0 6.0 0.00 0.00 0.00 45 1012.8
20260506013205 69 250 1.0 11.0 0.00 0.00 0.00 44 1013.0
20260506012657 68 239 5.0 5.0 0.00 0.00 0.00 46 1013.0
20260506012156 68 198 0.0 1.0 0.00 0.00 0.00 44 1013.0
20260506011656 69 46 0.0 2.0 0.00 0.00 0.00 45 1012.9
20260506011156 69 46 0.0 4.0 0.00 0.00 0.00 47 1013.0
20260506010702 69 50 3.0 3.0 0.00 0.00 0.00 49 1013.0
20260506010156 69 292 0.0 3.0 0.00 0.00 0.00 43 1013.1
20260506005700 70 225 3.0 10.0 0.00 0.00 0.00 39 1013.0
20260506005159 70 149 3.0 10.0 0.00 0.00 0.00 38 1012.9
20260506004659 69 137 7.0 9.0 0.00 0.00 0.00 39 1012.9
20260506004156 69 140 1.0 11.0 0.00 0.00 0.00 39 1013.1
20260506003659 70 187 3.0 10.0 0.00 0.00 0.00 42 1013.1
20260506003202 70 184 7.0 17.0 0.00 0.00 0.00 41 1013.1
20260506002656 69 169 9.0 11.0 0.00 0.00 0.00 43 1013.3
20260506002156 69 196 7.0 12.0 0.00 0.00 0.00 43 1013.3
20260506001657 69 154 3.0 9.0 0.00 0.00 0.00 44 1013.2
20260506001156 69 162 1.0 11.0 0.00 0.00 0.00 45 1013.1
20260506000702 69 141 5.0 19.0 0.00 0.00 0.00 44 1013.2
20260506000156 69 175 6.0 15.0 0.00 0.00 0.00 44 1013.2
20260505235702 69 169 3.0 10.0 0.00 0.00 0.00 46 1013.3
20260505235200 67 175 2.0 7.0 0.00 0.00 0.00 51 1013.4
20260505234656 67 210 5.0 5.0 0.00 0.00 0.00 60 1013.4
20260505234156 67 200 0.0 3.0 0.00 0.00 0.00 62 1013.4
20260505233659 67 139 0.0 1.0 0.00 0.00 0.00 63 1013.4
20260505233202 67 114 0.0 5.0 0.00 0.00 0.00 62 1013.4
20260505232700 67 180 0.0 0.0 0.00 0.00 0.00 63 1013.4
20260505232156 67 181 0.0 0.0 0.00 0.00 0.00 63 1013.4
20260505231659 67 181 0.0 3.0 0.00 0.00 0.00 62 1013.5
20260505231159 67 150 0.0 0.0 0.00 0.00 0.00 62 1013.5
20260505230702 67 150 0.0 2.0 0.00 0.00 0.00 63 1013.6
20260505230156 66 138 1.0 3.0 0.00 0.00 0.00 63 1013.6
20260505225702 66 148 0.0 4.0 0.00 0.00 0.00 64 1013.5
20260505225156 66 124 3.0 5.0 0.00 0.00 0.00 65 1013.5
20260505224700 67 165 2.0 6.0 0.00 0.00 0.00 66 1013.7
20260505224156 67 147 2.0 6.0 0.00 0.00 0.00 67 1013.8
20260505223659 67 124 1.0 5.0 0.00 0.00 0.00 68 1014.0
20260505223159 67 165 1.0 4.0 0.00 0.00 0.00 69 1014.0
20260505222656 66 140 0.0 0.0 0.00 0.00 0.00 69 1014.1
20260505222156 66 173 0.0 3.0 0.00 0.00 0.00 69 1014.2
20260505221700 66 161 0.0 4.0 0.00 0.00 0.00 70 1014.3
20260505221156 66 178 0.0 3.0 0.00 0.00 0.00 72 1014.4
20260505220656 66 165 2.0 5.0 0.00 0.00 0.00 72 1014.4
20260505220156 66 110 3.0 5.0 0.00 0.00 0.00 72 1014.4
20260505215659 66 173 0.0 2.0 0.00 0.00 0.00 74 1014.5
20260505215156 66 173 0.0 0.0 0.00 0.00 0.00 74 1014.6
20260505214656 66 173 0.0 4.0 0.00 0.00 0.00 74 1014.5
20260505214159 66 131 0.0 3.0 0.00 0.00 0.00 74 1014.7
20260505213656 66 122 1.0 2.0 0.00 0.00 0.00 74 1014.7
20260505213159 66 95 0.0 2.0 0.00 0.00 0.00 74 1014.8
20260505212659 66 95 0.0 2.0 0.00 0.00 0.00 74 1014.8
20260505212156 66 95 0.0 0.0 0.00 0.00 0.00 74 1014.8
20260505211656 66 95 0.0 1.0 0.00 0.00 0.00 75 1014.7
20260505211159 66 95 0.0 0.0 0.00 0.00 0.00 75 1014.8
20260505210656 66 95 0.0 1.0 0.00 0.00 0.00 75 1014.8
20260505210156 66 95 0.0 3.0 0.00 0.00 0.00 75 1014.7
20260505205656 66 95 3.0 3.0 0.00 0.00 0.00 75 1014.8
20260505205159 66 92 0.0 3.0 0.00 0.00 0.00 77 1014.9
20260505204659 66 355 0.0 2.0 0.00 0.00 0.00 78 1014.9
20260505204156 66 186 0.0 0.0 0.00 0.00 0.00 78 1015.0
20260505203656 66 186 0.0 0.0 0.00 0.00 0.00 78 1015.0
20260505203156 65 186 0.0 3.0 0.00 0.00 0.00 78 1015.0
20260505202703 65 155 2.0 4.0 0.00 0.00 0.00 77 1015.0
20260505202159 66 156 0.0 5.0 0.00 0.00 0.00 78 1015.0
20260505201656 66 143 0.0 4.0 0.00 0.00 0.00 78 1015.0
20260505201159 65 173 0.0 1.0 0.00 0.00 0.00 79 1015.1
20260505200656 65 117 0.0 0.0 0.00 0.00 0.00 79 1015.2
20260505200157 65 117 0.0 3.0 0.00 0.00 0.00 79 1015.4
20260505195659 65 166 0.0 0.0 0.00 0.00 0.00 79 1015.4
20260505195159 66 153 0.0 4.0 0.00 0.00 0.00 79 1015.4
20260505194700 66 190 1.0 4.0 0.00 0.00 0.00 79 1015.5
20260505194159 66 154 2.0 4.0 0.00 0.00 0.00 78 1015.5
20260505193659 67 202 0.0 0.0 0.00 0.00 0.00 78 1015.5
20260505193159 66 200 0.0 2.0 0.00 0.00 0.00 79 1015.6
20260505192700 66 200 0.0 0.0 0.00 0.00 0.00 79 1015.7
20260505192203 66 200 0.0 2.0 0.00 0.00 0.00 79 1015.7
20260505191703 67 200 2.0 3.0 0.00 0.00 0.00 78 1015.8
20260505191156 67 200 0.0 0.0 0.00 0.00 0.00 79 1015.7
20260505190656 67 200 0.0 0.0 0.00 0.00 0.00 79 1015.7
20260505190159 67 200 0.0 2.0 0.00 0.00 0.00 79 1015.7
20260505185656 67 200 3.0 3.0 0.00 0.00 0.00 78 1015.6
20260505185159 67 257 0.0 0.0 0.00 0.00 0.00 79 1015.6
20260505184656 67 257 0.0 0.0 0.00 0.00 0.00 79 1015.5
20260505184205 67 257 0.0 0.0 0.00 0.00 0.00 79 1015.5
20260505183656 67 257 0.0 0.0 0.00 0.00 0.00 79 1015.5
20260505183156 67 257 0.0 0.0 0.00 0.00 0.00 79 1015.5
20260505182659 67 257 0.0 0.0 0.00 0.00 0.00 78 1015.6
20260505182157 67 257 0.0 0.0 0.00 0.00 0.00 78 1015.6
20260505181657 67 254 0.0 1.0 0.00 0.00 0.00 78 1015.6
20260505181159 67 258 0.0 4.0 0.00 0.00 0.00 77 1015.7
20260505180659 67 243 1.0 4.0 0.00 0.00 0.00 77 1015.8
20260505180156 67 253 0.0 6.0 0.00 0.00 0.00 77 1015.8
20260505175659 67 242 3.0 4.0 0.00 0.00 0.00 77 1015.8
20260505175157 68 279 4.0 4.0 0.00 0.00 0.00 76 1015.8
20260505174656 68 279 1.0 4.0 0.00 0.00 0.00 76 1015.8
20260505174159 68 279 0.0 1.0 0.00 0.00 0.00 76 1015.7
20260505173700 68 279 1.0 4.0 0.00 0.00 0.00 76 1015.7
20260505173156 68 289 3.0 4.0 0.00 0.00 0.00 76 1015.7
20260505172657 68 296 1.0 4.0 0.00 0.00 0.00 75 1015.8
20260505172159 68 296 1.0 5.0 0.00 0.00 0.00 75 1015.9
20260505171656 68 307 4.0 6.0 0.00 0.00 0.00 74 1015.8
20260505171159 69 289 4.0 4.0 0.00 0.00 0.00 73 1015.8
20260505170702 69 246 0.0 6.0 0.00 0.00 0.00 71 1015.8
20260505170159 70 286 3.0 6.0 0.00 0.00 0.00 69 1015.8
20260505165702 70 292 1.0 4.0 0.00 0.00 0.00 67 1015.9
20260505165156 71 213 3.0 4.0 0.00 0.00 0.00 66 1015.8
20260505164656 71 285 0.0 4.0 0.00 0.00 0.00 65 1015.8
20260505164159 71 304 1.0 5.0 0.00 0.00 0.00 65 1015.9
20260505163659 71 240 1.0 4.0 0.00 0.00 0.00 65 1015.8
20260505163200 71 296 5.0 5.0 0.00 0.00 0.00 65 1015.8
20260505162657 71 263 0.0 6.0 0.00 0.00 0.00 64 1015.8
20260505162200 72 321 2.0 6.0 0.00 0.00 0.00 65 1015.8
20260505161703 71 296 0.0 3.0 0.00 0.00 0.00 66 1015.8
20260505161157 71 299 0.0 4.0 0.00 0.00 0.00 66 1015.8
20260505160703 71 257 1.0 4.0 0.00 0.00 0.00 66 1015.8
20260505160157 71 284 0.0 5.0 0.00 0.00 0.00 66 1015.8
20260505153157 72 355 4.0 7.0 0.00 0.00 0.00 64 1015.7
20260505152700 73 313 2.0 5.0 0.00 0.00 0.00 63 1015.7
20260505152200 73 306 1.0 8.0 0.00 0.00 0.00 61 1015.7
20260505151657 73 287 1.0 6.0 0.00 0.00 0.00 61 1015.7
20260505151157 73 279 6.0 6.0 0.00 0.00 0.00 61 1015.6
20260505150703 73 299 4.0 6.0 0.00 0.00 0.00 60 1015.7
20260505150200 73 284 4.0 6.0 0.00 0.00 0.00 61 1015.6